STARLINK-11304 [DTC]

Last updated on Mon Oct 21 2024 00:02:04 GMT+0000 (Coordinated Universal Time)

1 61209U 24171K 24294.59689082 .00000711 00000+0 83303-5 0 9991 2 61209 53.1555 146.5283 0000384 108.7669 251.3394 15.76726451 5977

Satellite not in orbit

STARLINK-11304 [DTC]